When you browse on this site, cookies collect data to enhance your experience and personalize the content and advertising you see.
Visit our Privacy Policy to learn more. By continuing to use the site, you agree to this use of cookies and data.
  • In Sweden
  • List of Countries
  • For 7 days
  • Water Temperature
  • Weather Map
  • Weather Widgets
  • user-avatar
    Login

    Hourly Weather Al-Jadida

    Today, 26 February, Wednesday

    Time Temperature Precipitation Wind Pressure Humidity
    00:00 +13°C° 0 mm 4 mps 768 mmHg 90%
    01:00 +13°C° 0 mm 4 mps 768 mmHg 90%
    02:00 +12°C° 0 mm 4 mps 767 mmHg 90%
    03:00 +12°C° 0 mm 4 mps 767 mmHg 90%
    04:00 +12°C° 0 mm 4 mps 767 mmHg 90%
    05:00 +12°C° 0 mm 4 mps 767 mmHg 90%
    06:00 +13°C° 0 mm 4 mps 767 mmHg 86%
    07:00 +14°C° 0 mm 3 mps 767 mmHg 82%
    08:00 +16°C° 0 mm 3 mps 767 mmHg 79%
    09:00 +17°C° 0 mm 4 mps 767 mmHg 74%
    10:00 +17°C° 0 mm 5 mps 767 mmHg 69%
    11:00 +20°C° 0 mm 6 mps 768 mmHg 64%
    12:00 +20°C° 0 mm 7 mps 767 mmHg 65%
    13:00 +20°C° 0 mm 7 mps 766 mmHg 67%
    14:00 +20°C° 0 mm 7 mps 766 mmHg 68%
    15:00 +18°C° 0 mm 8 mps 766 mmHg 73%
    16:00 +17°C° 0 mm 8 mps 766 mmHg 77%
    17:00 +16°C° 0 mm 9 mps 765 mmHg 82%
    18:00 +16°C° 0 mm 8 mps 766 mmHg 84%
    19:00 +15°C° 0 mm 8 mps 767 mmHg 87%
    20:00 +15°C° 0 mm 8 mps 767 mmHg 89%
    21:00 +14°C° 0 mm 7 mps 767 mmHg 89%
    22:00 +14°C° 0 mm 7 mps 767 mmHg 89%
    23:00 +13°C° 0 mm 6 mps 767 mmHg 90%

    Tomorrow, 27 February, Thursday

    Time Temperature Precipitation Wind Pressure Humidity
    00:00 +13°C° 0 mm 6 mps 766 mmHg 89%
    01:00 +13°C° 0 mm 6 mps 766 mmHg 89%
    02:00 +11°C° 0 mm 6 mps 765 mmHg 88%
    03:00 +11°C° 0 mm 6 mps 765 mmHg 87%
    04:00 +10°C° 0 mm 6 mps 765 mmHg 86%
    05:00 +10°C° 0 mm 6 mps 765 mmHg 85%
    06:00 +11°C° 0 mm 7 mps 766 mmHg 80%
    07:00 +12°C° 0 mm 7 mps 766 mmHg 76%
    08:00 +14°C° 0 mm 7 mps 766 mmHg 72%
    09:00 +16°C° 0 mm 7 mps 766 mmHg 68%
    10:00 +18°C° 0 mm 8 mps 766 mmHg 63%
    11:00 +20°C° 0 mm 8 mps 766 mmHg 59%
    12:00 +20°C° 0 mm 8 mps 765 mmHg 60%
    13:00 +20°C° 0 mm 8 mps 765 mmHg 60%
    14:00 +20°C° 0 mm 8 mps 764 mmHg 61%
    15:00 +18°C° 0 mm 8 mps 764 mmHg 65%
    16:00 +17°C° 0 mm 8 mps 764 mmHg 70%
    17:00 +16°C° 0 mm 7 mps 764 mmHg 74%
    18:00 +15°C° 0 mm 7 mps 765 mmHg 78%
    19:00 +14°C° 0 mm 7 mps 765 mmHg 82%
    20:00 +14°C° 0 mm 7 mps 765 mmHg 86%
    21:00 +12°C° 0 mm 7 mps 765 mmHg 86%
    22:00 +13°C° 0 mm 6 mps 765 mmHg 86%
    23:00 +13°C° 0 mm 6 mps 764 mmHg 86%

    Day after tomorrow, 28 February, Friday

    Time Temperature Precipitation Wind Pressure Humidity
    00:00 +11°C° 0 mm 6 mps 764 mmHg 86%
    01:00 +12°C° 0 mm 5 mps 764 mmHg 86%
    02:00 +12°C° 0 mm 5 mps 763 mmHg 85%
    03:00 +12°C° 0 mm 5 mps 763 mmHg 84%
    04:00 +12°C° 0 mm 4 mps 763 mmHg 82%
    05:00 +12°C° 0 mm 4 mps 762 mmHg 80%
    06:00 +14°C° 0 mm 4 mps 763 mmHg 73%
    07:00 +16°C° 0 mm 3 mps 763 mmHg 65%
    08:00 +18°C° 0 mm 3 mps 763 mmHg 57%
    09:00 +20°C° 0 mm 3 mps 763 mmHg 53%
    10:00 +22°C° 0 mm 3 mps 763 mmHg 49%
    11:00 +25°C° 0 mm 3 mps 763 mmHg 45%
    12:00 +25°C° 0 mm 3 mps 763 mmHg 47%
    13:00 +24°C° 0 mm 3 mps 762 mmHg 50%
    14:00 +24°C° 0 mm 2 mps 762 mmHg 52%
    15:00 +21°C° 0 mm 2 mps 762 mmHg 58%
    16:00 +20°C° 0 mm 2 mps 762 mmHg 63%
    17:00 +19°C° 0 mm 1 mps 762 mmHg 69%
    18:00 +18°C° 0 mm 1 mps 763 mmHg 72%
    19:00 +16°C° 0 mm 1 mps 763 mmHg 75%
    20:00 +15°C° 0 mm 1 mps 764 mmHg 77%
    21:00 +15°C° 0 mm 1 mps 764 mmHg 77%
    22:00 +15°C° 0 mm 2 mps 764 mmHg 77%
    23:00 +14°C° 0 mm 3 mps 764 mmHg 77%

    29 February, Saturday

    Time Temperature Precipitation Wind Pressure Humidity
    00:00 +14°C° 0 mm 3 mps 764 mmHg 80%
    01:00 +14°C° 0 mm 3 mps 764 mmHg 83%
    02:00 +14°C° 0 mm 3 mps 763 mmHg 85%
    03:00 +14°C° 0 mm 2 mps 763 mmHg 86%
    04:00 +14°C° 0 mm 2 mps 764 mmHg 88%
    05:00 +13°C° 0 mm 2 mps 764 mmHg 89%
    06:00 +15°C° 0 mm 2 mps 764 mmHg 85%
    07:00 +16°C° 0 mm 2 mps 765 mmHg 81%
    08:00 +18°C° 0 mm 2 mps 765 mmHg 77%
    09:00 +19°C° 0 mm 2 mps 765 mmHg 71%
    10:00 +20°C° 0 mm 2 mps 765 mmHg 66%
    11:00 +20°C° 0 mm 3 mps 766 mmHg 61%
    12:00 +20°C° 0 mm 3 mps 765 mmHg 61%
    13:00 +20°C° 0 mm 4 mps 765 mmHg 62%
    14:00 +20°C° 0 mm 4 mps 764 mmHg 63%
    15:00 +19°C° 0 mm 4 mps 765 mmHg 68%
    16:00 +19°C° 0 mm 3 mps 765 mmHg 73%
    17:00 +18°C° 0 mm 3 mps 765 mmHg 78%
    18:00 +17°C° 0 mm 2 mps 765 mmHg 81%
    19:00 +16°C° 0 mm 2 mps 766 mmHg 85%
    20:00 +15°C° 0 mm 2 mps 766 mmHg 88%
    21:00 +14°C° 0 mm 2 mps 766 mmHg 89%
    22:00 +14°C° 0 mm 1 mps 765 mmHg 89%
    23:00 +13°C° 0 mm 1 mps 765 mmHg 89%

    1 March, Sunday

    Time Temperature Precipitation Wind Pressure Humidity
    00:00 +13°C° 0 mm 1 mps 765 mmHg 90%
    01:00 +13°C° 0 mm 2 mps 765 mmHg 90%
    02:00 +13°C° 0 mm 2 mps 764 mmHg 90%
    03:00 +13°C° 0 mm 2 mps 764 mmHg 91%
    04:00 +13°C° 0 mm 2 mps 764 mmHg 91%
    05:00 +13°C° 0 mm 2 mps 764 mmHg 91%
    06:00 +14°C° 0 mm 2 mps 765 mmHg 88%
    07:00 +15°C° 0 mm 2 mps 765 mmHg 85%
    08:00 +16°C° 0 mm 2 mps 765 mmHg 82%
    09:00 +18°C° 0 mm 2 mps 765 mmHg 76%
    10:00 +19°C° 0 mm 2 mps 765 mmHg 69%
    11:00 +20°C° 0 mm 2 mps 765 mmHg 62%
    12:00 +21°C° 0 mm 3 mps 764 mmHg 63%
    13:00 +21°C° 0 mm 3 mps 763 mmHg 63%
    14:00 +21°C° 0 mm 4 mps 763 mmHg 63%
    15:00 +20°C° 0 mm 4 mps 763 mmHg 68%
    16:00 +19°C° 0 mm 4 mps 763 mmHg 73%
    17:00 +18°C° 0 mm 4 mps 763 mmHg 77%
    18:00 +17°C° 0 mm 3 mps 763 mmHg 81%
    19:00 +16°C° 0 mm 3 mps 764 mmHg 85%
    20:00 +14°C° 0 mm 3 mps 764 mmHg 89%
    21:00 +15°C° 0 mm 2 mps 764 mmHg 90%
    22:00 +14°C° 0 mm 1 mps 764 mmHg 91%
    23:00 +14°C° 0 mm 1 mps 764 mmHg 92%

    2 March, Monday

    Time Temperature Precipitation Wind Pressure Humidity
    00:00 +14°C° 0 mm 1 mps 764 mmHg 93%
    01:00 +13°C° 0 mm 1 mps 764 mmHg 93%
    02:00 +13°C° 0 mm 1 mps 764 mmHg 93%
    03:00 +14°C° 0 mm 2 mps 764 mmHg 94%
    04:00 +14°C° 0 mm 2 mps 764 mmHg 94%
    05:00 +14°C° 0 mm 2 mps 764 mmHg 95%
    06:00 +15°C° 0 mm 2 mps 765 mmHg 92%
    07:00 +16°C° 0 mm 3 mps 765 mmHg 88%
    08:00 +17°C° 0 mm 3 mps 765 mmHg 85%
    09:00 +19°C° 0 mm 3 mps 766 mmHg 79%
    10:00 +20°C° 0 mm 3 mps 766 mmHg 73%
    11:00 +21°C° 0 mm 2 mps 766 mmHg 67%
    12:00 +21°C° 0 mm 3 mps 765 mmHg 69%
    13:00 +21°C° 0 mm 4 mps 765 mmHg 70%
    14:00 +21°C° 0 mm 4 mps 765 mmHg 71%
    15:00 +20°C° 0 mm 4 mps 765 mmHg 74%
    16:00 +19°C° 0 mm 4 mps 765 mmHg 78%
    17:00 +19°C° 0 mm 4 mps 765 mmHg 81%
    18:00 +18°C° 0 mm 4 mps 765 mmHg 84%
    19:00 +17°C° 0 mm 4 mps 766 mmHg 88%
    20:00 +15°C° 0 mm 4 mps 766 mmHg 91%
    21:00 +15°C° 0 mm 4 mps 766 mmHg 91%
    22:00 +15°C° 0 mm 4 mps 766 mmHg 92%
    23:00 +15°C° 0 mm 4 mps 766 mmHg 92%
    Show more